• In Hungary
  • List of Countries
  • For 7 days
  • Water Temperature
  • Satellite Maps
  • Weather Map
  • News
  • Weather Widgets
  • user-avatar
    Login

    Hourly Weather Strzegom

    Today, 20 September, Thursday

    Time Temperature Precipitation Wind Pressure Humidity
    00:00 +19°C° 0 mm 2 mps 744 mmHg 72%
    01:00 +19°C° 0 mm 2 mps 744 mmHg 69%
    02:00 +19°C° 0 mm 2 mps 744 mmHg 70%
    03:00 +19°C° 0 mm 2 mps 744 mmHg 71%
    04:00 +18°C° 0 mm 2 mps 744 mmHg 71%
    05:00 +19°C° 0 mm 2 mps 744 mmHg 71%
    06:00 +19°C° 0 mm 2 mps 744 mmHg 71%
    07:00 +20°C° 0 mm 2 mps 744 mmHg 65%
    08:00 +23°C° 0 mm 2 mps 744 mmHg 60%
    09:00 +25°C° 0 mm 2 mps 744 mmHg 54%
    10:00 +27°C° 0 mm 2 mps 744 mmHg 48%
    11:00 +28°C° 0 mm 2 mps 744 mmHg 45%
    12:00 +29°C° 0 mm 2 mps 744 mmHg 42%
    13:00 +30°C° 0 mm 2 mps 744 mmHg 39%
    14:00 +30°C° 0 mm 2 mps 743 mmHg 40%
    15:00 +30°C° 0 mm 2 mps 743 mmHg 41%
    16:00 +29°C° 0 mm 2 mps 743 mmHg 42%
    17:00 +27°C° 0 mm 2 mps 743 mmHg 47%
    18:00 +25°C° 0 mm 2 mps 743 mmHg 52%
    19:00 +23°C° 0 mm 2 mps 742 mmHg 57%
    20:00 +23°C° 0 mm 2 mps 742 mmHg 59%
    21:00 +21°C° 0 mm 2 mps 742 mmHg 61%
    22:00 +20°C° 0 mm 2 mps 742 mmHg 62%
    23:00 +20°C° 0 mm 2 mps 742 mmHg 65%

    Tomorrow, 21 September, Friday

    Time Temperature Precipitation Wind Pressure Humidity
    00:00 +20°C° 0 mm 3 mps 742 mmHg 67%
    01:00 +19°C° 0 mm 3 mps 741 mmHg 69%
    02:00 +19°C° 0 mm 3 mps 741 mmHg 71%
    03:00 +19°C° 0 mm 3 mps 741 mmHg 73%
    04:00 +18°C° 0 mm 3 mps 740 mmHg 75%
    05:00 +19°C° 0 mm 3 mps 740 mmHg 74%
    06:00 +19°C° 0 mm 3 mps 740 mmHg 72%
    07:00 +20°C° 0 mm 3 mps 740 mmHg 71%
    08:00 +21°C° 0 mm 4 mps 739 mmHg 63%
    09:00 +23°C° 0 mm 5 mps 739 mmHg 54%
    10:00 +26°C° 0 mm 6 mps 739 mmHg 46%
    11:00 +27°C° 0 mm 6 mps 738 mmHg 43%
    12:00 +28°C° 0 mm 6 mps 738 mmHg 41%
    13:00 +29°C° 0 mm 7 mps 737 mmHg 39%
    14:00 +29°C° 0 mm 6 mps 737 mmHg 40%
    15:00 +28°C° 0 mm 6 mps 736 mmHg 42%
    16:00 +28°C° 0 mm 6 mps 736 mmHg 44%
    17:00 +27°C° 0 mm 5 mps 736 mmHg 47%
    18:00 +26°C° 0 mm 5 mps 736 mmHg 51%
    19:00 +23°C° 0 mm 5 mps 736 mmHg 55%
    20:00 +21°C° 0.3 mm 5 mps 737 mmHg 62%
    21:00 +19°C° 0.3 mm 6 mps 738 mmHg 69%
    22:00 +16°C° 0.3 mm 6 mps 739 mmHg 76%
    23:00 +15°C° 0.2 mm 6 mps 740 mmHg 74%

    Day after tomorrow, 22 September, Saturday

    Time Temperature Precipitation Wind Pressure Humidity
    00:00 +14°C° 0.2 mm 5 mps 741 mmHg 73%
    01:00 +13°C° 0.2 mm 5 mps 742 mmHg 71%
    02:00 +12°C° 0 mm 4 mps 742 mmHg 70%
    03:00 +12°C° 0 mm 4 mps 743 mmHg 70%
    04:00 +11°C° 0 mm 3 mps 743 mmHg 70%
    05:00 +11°C° 0 mm 4 mps 743 mmHg 69%
    06:00 +11°C° 0 mm 4 mps 744 mmHg 69%
    07:00 +11°C° 0 mm 4 mps 744 mmHg 68%
    08:00 +12°C° 0 mm 5 mps 744 mmHg 62%
    09:00 +14°C° 0 mm 5 mps 744 mmHg 55%
    10:00 +15°C° 0 mm 6 mps 744 mmHg 49%
    11:00 +16°C° 0 mm 6 mps 744 mmHg 46%
    12:00 +16°C° 0 mm 6 mps 744 mmHg 43%
    13:00 +17°C° 0 mm 6 mps 743 mmHg 41%
    14:00 +17°C° 0 mm 6 mps 743 mmHg 41%
    15:00 +17°C° 0 mm 5 mps 743 mmHg 42%
    16:00 +16°C° 0 mm 5 mps 743 mmHg 42%
    17:00 +15°C° 0 mm 4 mps 743 mmHg 46%
    18:00 +14°C° 0 mm 4 mps 744 mmHg 50%
    19:00 +13°C° 0 mm 3 mps 744 mmHg 54%
    20:00 +12°C° 0 mm 3 mps 744 mmHg 56%
    21:00 +12°C° 0 mm 3 mps 744 mmHg 58%
    22:00 +11°C° 0 mm 3 mps 744 mmHg 60%
    23:00 +11°C° 0 mm 3 mps 744 mmHg 61%

    23 September, Sunday

    Time Temperature Precipitation Wind Pressure Humidity
    00:00 +12°C° 0 mm 2 mps 744 mmHg 61%
    01:00 +12°C° 0 mm 2 mps 744 mmHg 62%
    02:00 +12°C° 0 mm 2 mps 744 mmHg 62%
    03:00 +12°C° 0 mm 2 mps 744 mmHg 62%
    04:00 +12°C° 0 mm 2 mps 744 mmHg 62%
    05:00 +12°C° 0 mm 2 mps 743 mmHg 64%
    06:00 +11°C° 0 mm 3 mps 743 mmHg 65%
    07:00 +12°C° 0 mm 3 mps 743 mmHg 67%
    08:00 +12°C° 0.1 mm 3 mps 742 mmHg 67%
    09:00 +13°C° 0.1 mm 4 mps 742 mmHg 68%
    10:00 +13°C° 0.1 mm 4 mps 741 mmHg 68%
    11:00 +13°C° 0.1 mm 4 mps 740 mmHg 69%
    12:00 +14°C° 0.1 mm 4 mps 739 mmHg 71%
    13:00 +14°C° 0.1 mm 4 mps 738 mmHg 72%
    14:00 +15°C° 0.1 mm 5 mps 737 mmHg 72%
    15:00 +16°C° 0.1 mm 6 mps 736 mmHg 73%
    16:00 +17°C° 0.1 mm 7 mps 735 mmHg 73%
    17:00 +17°C° 0.3 mm 8 mps 734 mmHg 76%
    18:00 +17°C° 0.3 mm 8 mps 733 mmHg 78%
    19:00 +18°C° 0.3 mm 8 mps 732 mmHg 80%
    20:00 +18°C° 1 mm 8 mps 731 mmHg 80%
    21:00 +18°C° 1 mm 8 mps 731 mmHg 80%
    22:00 +20°C° 1 mm 8 mps 730 mmHg 80%
    23:00 +18°C° 1.4 mm 8 mps 729 mmHg 81%

    24 September, Monday

    Time Temperature Precipitation Wind Pressure Humidity
    00:00 +17°C° 1.4 mm 8 mps 729 mmHg 82%
    01:00 +17°C° 1.4 mm 8 mps 729 mmHg 84%
    02:00 +15°C° 0.5 mm 9 mps 730 mmHg 83%
    03:00 +12°C° 0.5 mm 9 mps 731 mmHg 83%
    04:00 +10°C° 0.5 mm 9 mps 733 mmHg 83%
    05:00 +10°C° 0.2 mm 9 mps 735 mmHg 82%
    06:00 +8°C° 0.2 mm 9 mps 737 mmHg 81%
    07:00 +7°C° 0.2 mm 9 mps 739 mmHg 79%
    08:00 +7°C° 0.1 mm 9 mps 740 mmHg 75%
    09:00 +8°C° 0.1 mm 9 mps 741 mmHg 70%
    10:00 +8°C° 0.1 mm 10 mps 742 mmHg 66%
    11:00 +9°C° 0.1 mm 10 mps 742 mmHg 60%
    12:00 +11°C° 0.1 mm 10 mps 743 mmHg 53%
    13:00 +12°C° 0.1 mm 10 mps 744 mmHg 47%
    14:00 +12°C° 0.1 mm 10 mps 745 mmHg 49%
    15:00 +11°C° 0.1 mm 9 mps 745 mmHg 51%
    16:00 +11°C° 0.1 mm 9 mps 746 mmHg 53%
    17:00 +10°C° 0.1 mm 7 mps 747 mmHg 58%
    18:00 +9°C° 0.1 mm 6 mps 748 mmHg 64%
    19:00 +8°C° 0.1 mm 5 mps 748 mmHg 69%
    20:00 +7°C° 0 mm 5 mps 749 mmHg 70%
    21:00 +7°C° 0 mm 4 mps 750 mmHg 70%
    22:00 +7°C° 0 mm 4 mps 750 mmHg 71%
    23:00 +6°C° 0 mm 4 mps 750 mmHg 71%

    25 September, Tuesday

    Time Temperature Precipitation Wind Pressure Humidity
    00:00 +6°C° 0 mm 4 mps 751 mmHg 70%
    01:00 +6°C° 0 mm 4 mps 751 mmHg 70%
    02:00 +5°C° 0 mm 4 mps 752 mmHg 73%
    03:00 +5°C° 0 mm 4 mps 752 mmHg 76%
    04:00 +5°C° 0 mm 4 mps 752 mmHg 79%
    05:00 +5°C° 0 mm 5 mps 752 mmHg 79%
    06:00 +5°C° 0 mm 5 mps 753 mmHg 80%
    07:00 +6°C° 0 mm 5 mps 753 mmHg 80%
    08:00 +7°C° 0 mm 5 mps 753 mmHg 74%
    09:00 +8°C° 0 mm 6 mps 753 mmHg 68%
    10:00 +10°C° 0 mm 6 mps 753 mmHg 62%
    11:00 +11°C° 0 mm 6 mps 753 mmHg 59%
    12:00 +11°C° 0 mm 7 mps 753 mmHg 56%
    13:00 +12°C° 0 mm 7 mps 752 mmHg 53%
    14:00 +12°C° 0 mm 7 mps 752 mmHg 55%
    15:00 +12°C° 0 mm 7 mps 752 mmHg 56%
    16:00 +12°C° 0 mm 7 mps 751 mmHg 58%
    17:00 +11°C° 0 mm 7 mps 751 mmHg 61%
    18:00 +11°C° 0 mm 6 mps 751 mmHg 64%
    19:00 +10°C° 0 mm 6 mps 751 mmHg 66%
    20:00 +10°C° 0.1 mm 6 mps 751 mmHg 69%
    21:00 +10°C° 0.1 mm 7 mps 751 mmHg 72%
    22:00 +10°C° 0.1 mm 7 mps 751 mmHg 74%
    23:00 +9°C° 0.4 mm 6 mps 752 mmHg 77%
    Show more